Time,TemperatureF,DewpointF,PressureIn,WindDirection,WindDirectionDegrees,WindSpeedMPH,WindSpeedGustMPH,Humidity,HourlyPrecipIn,Conditions,Clouds,dailyrainin,SolarRadiationWatts/m^2,SoftwareType,DateUTC
2013-08-01 00:02:00,78.0,38.0,-100.00,SSW,198,13.0,19.0,24,0.00,,,0.00,1.000000,,2013-08-01 06:02:00,
2013-08-01 00:12:00,78.0,38.0,-100.00,SSW,198,13.0,19.0,24,0.00,,,0.00,1.000000,,2013-08-01 06:12:00,
2013-08-01 00:43:00,75.0,42.0,-100.00,South,187,8.0,19.0,31,0.00,,,0.00,1.000000,,2013-08-01 06:43:00,
2013-08-01 00:53:00,75.0,42.0,-100.00,South,187,8.0,19.0,31,0.00,,,0.00,1.000000,,2013-08-01 06:53:00,
2013-08-01 01:02:00,75.0,42.0,-100.00,South,187,8.0,19.0,31,0.00,,,0.00,1.000000,,2013-08-01 07:02:00,
2013-08-01 01:12:00,75.0,42.0,-100.00,South,187,8.0,19.0,31,0.00,,,0.00,1.000000,,2013-08-01 07:12:00,
2013-08-01 01:15:00,72.0,45.0,-100.00,South,177,11.0,17.0,38,0.00,,,0.00,1.000000,,2013-08-01 07:15:00,
2013-08-01 01:43:00,72.0,45.0,-100.00,South,177,11.0,17.0,38,0.00,,,0.00,1.000000,,2013-08-01 07:43:00,
2013-08-01 01:55:00,72.0,45.0,-100.00,South,177,11.0,17.0,38,0.00,,,0.00,1.000000,,2013-08-01 07:55:00,
2013-08-01 02:05:00,72.0,45.0,-100.00,South,177,11.0,17.0,38,0.00,,,0.00,1.000000,,2013-08-01 08:05:00,
2013-08-01 02:15:00,71.0,47.0,-100.00,South,184,9.0,18.0,42,0.00,,,0.00,1.000000,,2013-08-01 08:15:00,
2013-08-01 02:48:00,71.0,47.0,-100.00,South,184,9.0,18.0,42,0.00,,,0.00,1.000000,,2013-08-01 08:48:00,
2013-08-01 03:08:00,71.0,47.0,-100.00,South,184,9.0,18.0,42,0.00,,,0.00,1.000000,,2013-08-01 09:08:00,
2013-08-01 03:58:00,69.0,46.0,-100.00,SSE,155,5.0,11.0,43,0.00,,,0.00,1.000000,,2013-08-01 09:58:00,
2013-08-01 04:11:00,69.0,46.0,-100.00,SSE,155,5.0,11.0,43,0.00,,,0.00,1.000000,,2013-08-01 10:11:00,
2013-08-01 04:15:00,69.0,46.0,-100.00,SSE,150,6.0,10.0,44,0.14,,,0.14,1.000000,,2013-08-01 10:15:00,
2013-08-01 05:07:00,69.0,46.0,-100.00,SSE,150,6.0,10.0,44,0.14,,,0.14,1.000000,,2013-08-01 11:07:00,
2013-08-01 05:50:00,70.0,46.0,-100.00,SSE,157,8.0,12.0,43,0.00,,,0.14,1.000000,,2013-08-01 11:50:00,
2013-08-01 06:08:00,70.0,46.0,-100.00,SSE,157,8.0,12.0,43,0.00,,,0.14,1.000000,,2013-08-01 12:08:00,
2013-08-01 06:15:00,70.0,46.0,-100.00,SSE,159,5.0,12.0,42,0.00,,,0.14,1.000000,,2013-08-01 12:15:00,
2013-08-01 07:10:00,70.0,46.0,-100.00,SSE,159,5.0,12.0,42,0.00,,,0.14,1.000000,,2013-08-01 13:10:00,
2013-08-01 07:55:00,67.0,51.0,-100.00,ESE,119,3.0,13.0,57,0.00,,,0.14,13.000000,,2013-08-01 13:55:00,
2013-08-01 08:07:00,67.0,51.0,-100.00,ESE,119,3.0,13.0,57,0.00,,,0.14,13.000000,,2013-08-01 14:07:00,
2013-08-01 08:15:00,70.0,50.0,-100.00,ESE,118,7.0,9.0,50,0.00,,,0.14,77.000000,,2013-08-01 14:15:00,
2013-08-01 09:12:00,70.0,50.0,-100.00,ESE,118,7.0,9.0,50,0.00,,,0.14,77.000000,,2013-08-01 15:12:00,
2013-08-01 11:15:00,76.0,48.0,-100.00,SSE,157,10.0,16.0,37,-99.99,,,0.14,291.000000,,2013-08-01 17:15:00,
2013-08-01 11:59:00,76.0,48.0,-100.00,SSE,157,10.0,16.0,37,-99.99,,,0.14,291.000000,,2013-08-01 17:59:00,
2013-08-01 12:09:00,76.0,48.0,-100.00,SSE,157,10.0,16.0,37,-99.99,,,0.14,291.000000,,2013-08-01 18:09:00,
2013-08-01 12:55:00,77.0,46.0,-100.00,SSW,208,10.0,17.0,34,0.00,,,0.14,435.000000,,2013-08-01 18:55:00,
2013-08-01 13:00:00,77.0,46.0,-100.00,SSW,208,10.0,17.0,34,0.00,,,0.14,435.000000,,2013-08-01 19:00:00,
2013-08-01 13:09:00,77.0,46.0,-100.00,SSW,208,10.0,17.0,34,0.00,,,0.14,435.000000,,2013-08-01 19:09:00,
2013-08-01 13:15:00,78.0,45.0,-100.00,South,182,5.0,12.0,31,0.00,,,0.14,471.000000,,2013-08-01 19:15:00,
2013-08-01 14:06:00,78.0,45.0,-100.00,South,182,5.0,12.0,31,0.00,,,0.14,471.000000,,2013-08-01 20:06:00,
2013-08-01 15:14:00,80.0,43.0,-100.00,SSW,204,6.0,14.0,27,0.00,,,0.14,549.000000,,2013-08-01 21:14:00,
2013-08-01 15:15:00,79.0,43.0,-100.00,SSW,196,7.0,12.0,28,0.01,,,0.15,482.000000,,2013-08-01 21:15:00,
2013-08-01 15:43:00,79.0,43.0,-100.00,SSW,196,7.0,12.0,28,0.01,,,0.15,482.000000,,2013-08-01 21:43:00,
2013-08-01 15:53:00,79.0,43.0,-100.00,SSW,196,7.0,12.0,28,0.01,,,0.15,482.000000,,2013-08-01 21:53:00,
2013-08-01 16:15:00,69.0,60.0,-100.00,SE,130,6.0,28.0,72,0.01,,,0.16,155.000000,,2013-08-01 22:15:00,
2013-08-01 16:59:00,69.0,60.0,-100.00,SE,130,6.0,28.0,72,0.01,,,0.16,155.000000,,2013-08-01 22:59:00,
2013-08-01 17:15:00,70.0,56.0,-100.00,East,79,10.0,14.0,62,0.00,,,0.16,268.000000,,2013-08-01 23:15:00,
2013-08-01 17:52:00,70.0,56.0,-100.00,East,79,10.0,14.0,62,0.00,,,0.16,268.000000,,2013-08-01 23:52:00,
2013-08-01 18:00:00,70.0,56.0,-100.00,East,79,10.0,14.0,62,0.00,,,0.16,268.000000,,2013-08-02 00:00:00,
2013-08-01 18:15:00,71.0,54.0,-100.00,East,88,13.0,19.0,55,0.00,,,0.16,432.000000,,2013-08-02 00:15:00,
2013-08-01 19:00:00,71.0,54.0,-100.00,East,88,13.0,19.0,55,0.00,,,0.16,432.000000,,2013-08-02 01:00:00,
2013-08-01 19:49:00,69.0,55.0,-100.00,East,95,11.0,16.0,61,0.00,,,0.16,73.000000,,2013-08-02 01:49:00,
2013-08-01 20:00:00,69.0,55.0,-100.00,East,95,11.0,16.0,61,0.00,,,0.16,73.000000,,2013-08-02 02:00:00,
2013-08-01 20:07:00,69.0,55.0,-100.00,East,95,11.0,16.0,61,0.00,,,0.16,73.000000,,2013-08-02 02:07:00,
2013-08-01 20:45:00,66.0,56.0,-100.00,East,98,12.0,20.0,69,0.00,,,0.16,45.000000,,2013-08-02 02:45:00,
2013-08-01 20:53:00,66.0,56.0,-100.00,East,98,12.0,20.0,69,0.00,,,0.16,45.000000,,2013-08-02 02:53:00,
2013-08-01 21:08:00,66.0,56.0,-100.00,East,98,12.0,20.0,69,0.00,,,0.16,45.000000,,2013-08-02 03:08:00,
2013-08-01 22:00:00,65.0,56.0,-100.00,East,91,11.0,18.0,74,0.00,,,0.16,1.000000,,2013-08-02 04:00:00,
2013-08-01 22:02:00,65.0,56.0,-100.00,East,91,11.0,18.0,74,0.00,,,0.16,1.000000,,2013-08-02 04:02:00,
2013-08-01 22:12:00,65.0,56.0,-100.00,East,91,11.0,18.0,74,0.00,,,0.16,1.000000,,2013-08-02 04:12:00,
2013-08-01 22:43:00,63.0,55.0,-100.00,East,89,8.0,16.0,75,0.00,,,0.16,1.000000,,2013-08-02 04:43:00,
2013-08-01 22:53:00,63.0,55.0,-100.00,East,89,8.0,16.0,75,0.00,,,0.16,1.000000,,2013-08-02 04:53:00,
2013-08-01 23:02:00,63.0,55.0,-100.00,East,89,8.0,16.0,75,0.00,,,0.16,1.000000,,2013-08-02 05:02:00,
2013-08-01 23:12:00,63.0,55.0,-100.00,East,89,8.0,16.0,75,0.00,,,0.16,1.000000,,2013-08-02 05:12:00,
2013-08-01 23:43:00,62.0,55.0,-100.00,East,95,9.0,14.0,77,0.00,,,0.16,1.000000,,2013-08-02 05:43:00,
2013-08-01 23:53:00,62.0,55.0,-100.00,East,95,9.0,14.0,77,0.00,,,0.16,1.000000,,2013-08-02 05:53:00,